Погода в Дербенте

Погода в Дербенте : погода сейчас, прогноз погоды и архив. Всё, что Вы хотите узнать о погоде в Дербенте!

Поиск расширенной информации на нашем сайте:

Другие новости

Новости СМИ2

Главная страница сайта

Новости сайта

03.07.2017

Напоминаем, что на нашем специализированном сайте Метеоцентр.Азия вы можете получить высокодетализированные автоматические прогнозы погоды по пунктам России, СНГ и мира в авиационном формате (включающие направление и скорость ветра, видимость, явления погоды, количество и форму облачности, нижнюю и верхнюю границу облачности).

Рекомендуем: Смотрите описание зеркало с подсветкой на сайте.

Погода в Дербенте - сегодня

Время (UTC), дата Ветер
(°,м/с) 
Видим.   Явления Облачность Т
(°С)
Тd
(°С)
f(%) Тe
(°С)
Pmin
(гПа)
dP
(гПа)
Po
(мм)
O2
(г/м3)
Тmin Tmax R s Состояние
почвы
00 18.08.17 250 (З) 10 км    6/3 600 м средняя 
[Sc|Ac trans]
+24.4 +19.8 76 +42  1011.6  -0.7  760  276           
03 18.08.17 тихо ()   20000 м    9/9 300 м кучево-дожд. 
[Cb cap]
+24.8 +20.4 77 +44  1011.6  760  276  +24.1        сухая 
06 18.08.17 тихо ()   20000 м    9/9 600 м 
[Sc]
+26.8 +20 66 +45  1012.1  0.7  761  274           
09 18.08.17 020 (С) 20000 м    9/5 600 м средняя, верхняя 
[Cu Sc|Ac cuf|Ci sp]
+31.7 +18.6 46 +47  1012.7  0.6  761  271           
12 18.08.17 020 (С) 20000 м    8/0 средняя, верхняя 
[Ac cuf|Ci sp]
+30.4 +21.8 60 +53  1012.5  -0.2  761  270           
15 18.08.17 020 (С) 20000 м    8/6 600 м средняя 
[Sc|Ac cuf]
+27.7 +20.7 66 +47  1013.9  1.4  762  274    +31.9       
18 18.08.17 060 (СВ) 10 км    9/9 600 м кучево-дожд. 
[Cb cap]
+27 +18.8 61 +42  1015.9  764  276           
21 18.08.17 220 (ЮЗ) 10 км    9/9 600 м 
[Sc]
+26.3 +17.8 60 +40  1016  764  277           
00 19.08.17 270 (З) 10 км    8/0 средняя 
[Ac trans]
+23.6 +16.3 64 +34  1015.4  -0.5  763  280           
03 19.08.17 тихо ()   20000 м    8/6 600 м средняя 
[Sc|Ac trans]
+24.5 +17.2 64 +37  1016.1  0.7  764  279  +23.3        сухая 
06 19.08.17 070 (В) 20000 м    3/0 средняя 
[Ac trans]
+29.3 +18.9 54 +45  1016.6  0.5  764  274           
09 19.08.17 090 (В) 20000 м    ясно 
+30.7 +21.3 57 +52  1016  -0.7  764  271           
12 19.08.17 100 (В) 20000 м    4/0 средняя 
[Ac trans]
+30.3 +18.9 51 +46  1016.3  0.3  764  273           
15 19.08.17 130 (ЮВ) 20000 м    4/0 средняя 
[Ac trans]
+27.7 +20 63 +46  1016.3  764  275    +30.9       
18 19.08.17 190 (Ю) 10 км    ясно 
+26.1 +20.5 71 +45  1016.9  0.7  764  276           
21 19.08.17 250 (З) 10 км    ясно 
+23.8 +17.1 66 +36  1015.7  -1.3  763  279           
00 20.08.17 210 (ЮЗ) 10 км    6/0 средняя 
[Ac trans]
+23.2 +18.4 74 +38  1016.4  0.7  764  279           
03 20.08.17 200 (Ю) 20000 м    8/6 600 м средняя 
[Sc|Ac trans]
+25 +17.8 64 +38  1015.4  -1  763  278  +23.1        сухая 
06 20.08.17 140 (ЮВ) 20000 м    8/0 средняя 
[Ac trans]
+28.4 +17.4 51 +41  1015.7  0.2  763  275           
09 20.08.17 120 (ЮВ) 20000 м    8/4 600 м средняя 
[Sc|Ac trans]
+29.5 +21.6 63 +51  1015.5  -0.1  763  272           
12 20.08.17 120 (ЮВ) 5{10}  20000 м    9/8 300 м кучево-дожд., средняя 
[Cb cap|Ac cuf]
+28.3 +20.7 63 +48  1014.6  -0.9  762  273           
15 20.08.17 130 (ЮВ) 2{11}  20000 м    8/4 600 м средняя 
[Sc|Ac trans]
+27.4 +20.7 67 +47  1014.2  -0.3  762  274    +30.5       
18 20.08.17 250 (З) 10 км    5/0 средняя 
[Ac trans]
+25.9 +20 70 +44  1014.8  0.6  763  276           
21 20.08.17 230 (ЮЗ) 10 км    8/0 средняя 
[Ac trans]
+25.5 +19.9 71 +43  1013  -1.8  761  276           
00 21.08.17 280 (З) 10 км    ясно 
+24.4 +19.2 73 +41  1012.8  -0.3  761  277           
Время (UTC), дата Ветер
(°,м/с) 
Видим.   Явления Облачность Т
(°С)
Тd
(°С)
f(%) Тe
(°С)
Pmin
(гПа)
dP
(гПа)
Po
(мм)
O2
(г/м3)
Тmin Tmax R s Состояние
почвы

Для получения пояснительной информации подведите курсор к названию столбца.

ПОГОДА в Дербенте - архив

Всё, что Вы хотите узнать о погоде в Дербенте - удобно и подробно!

Выберите нужную дату (начиная с 1 января 2015* года) и нажмите кнопку "Найти".
Будут отображены архивные сводки погоды по пункту Дербент, начиная с указанной даты.


Отображать данные в формате CSV (для использования в таблицах Excel)


Внимание! Наш архив погоды предназначен исключительно для личного некоммерческого использования в познавательных целях. Если Вам необходимы официальные справки о состоянии погоды (для производственных, юридических, коммерческих и т.п. целей), обращайтесь в органы Росгидромета.

*Примечание: данная дата относится к архиву по метеостанциям СССР (Россия, СНГ, Балтия).
Архив по метеостанциям Зарубежной Европы и Азии (кроме Китая) хранится 10 дней, по другим регионам земного шара (Китай, Африка, Америка, Австралия, Океания) - 1 день.

Дербент - район местоположения метеостанции


Название, широта, долгота, высота метеостанции:
Дербент 42.1°ш. 48.3°д. -19 м над ур. моря [Российская Федерация]

Дополнительная информация

В oтличие oт бoльшинства пoгoдных сайтoв мы публикуем пoдрoбную метеoинфoрмацию в детальнoм прoфессиoнальнoм фoрмате.

Характеристики температуры и влажнoсти вoздуха измеряются на высoте 2 м в тени вдали oт зданий и деревьев.
Скoрoсть ветра измеряется на высoте 10 м (на урoвне рoста челoвека скoрoсть ветра ниже в 1.5-2 раза). Если метеoстанция нахoдится в гoрoде или в лесу, тo скoрoсть ветра занижена на 2-4 м/с пo сравнению с oткрытым местoм. Скoрoсть ветра над акватoриями крупных рек и oзёр, а также на вершинах хoлмoв на 2-5 м/с выше, чем в oбычных услoвиях.
Атмoсфернoе давление в разных тoчках местнoсти мoжет значительнo oтличаться oт давления на метеoстанции, в зависимoсти oт услoвий рельефа (при пoдъёме на 10 м давление пoнижается примернo на 1 мм рт.ст.).